| time (UTC) | temp C | wind direction | speed KPH | gust KPH | rain 1hr cm | rain 24hr cm | rain mn cm | humidity % | barometer mb |
| 20260904160125 | 32 | 234 | 8.0 | 9.7 | 0.00 | 0.00 | 0.00 | 61 | 1015.0 |
| 20260904155620 | 32 | 247 | 6.4 | 11.3 | 0.00 | 0.00 | 0.00 | 63 | 1015.1 |
| 20260904155114 | 32 | 273 | 3.2 | 3.2 | 0.00 | 0.00 | 0.00 | 62 | 1015.2 |
| 20260904154608 | 32 | 199 | 6.4 | 6.4 | 0.00 | 0.00 | 0.00 | 63 | 1015.0 |
| 20260904154102 | 32 | 330 | 3.2 | 4.8 | 0.00 | 0.00 | 0.00 | 64 | 1015.0 |
| 20260904153601 | 32 | 291 | 4.8 | 4.8 | 0.00 | 0.00 | 0.00 | 64 | 1014.8 |
| 20260904153053 | 31 | 227 | 4.8 | 6.4 | 0.00 | 0.00 | 0.00 | 64 | 1014.9 |
| 20260904152548 | 31 | 271 | 4.8 | 6.4 | 0.00 | 0.00 | 0.00 | 66 | 1014.9 |
| 20260904152043 | 31 | 300 | 4.8 | 6.4 | 0.00 | 0.00 | 0.00 | 64 | 1014.8 |
| 20260904151538 | 31 | 282 | 4.8 | 6.4 | 0.00 | 0.00 | 0.00 | 66 | 1014.9 |
| 20260904151038 | 31 | 353 | 0.0 | 1.6 | 0.00 | 0.00 | 0.00 | 65 | 1014.8 |
| 20260904150538 | 32 | 290 | 8.0 | 11.3 | 0.00 | 0.00 | 0.00 | 63 | 1014.8 |
| 20260904150033 | 30 | 328 | 4.8 | 4.8 | 0.00 | 0.00 | 0.00 | 67 | 1014.9 |
| 20260904145532 | 30 | 254 | 6.4 | 6.4 | 0.00 | 0.00 | 0.00 | 68 | 1014.8 |
| 20260904145027 | 31 | 340 | 3.2 | 6.4 | 0.00 | 0.00 | 0.00 | 68 | 1014.7 |
| 20260904144523 | 31 | 288 | 3.2 | 4.8 | 0.00 | 0.00 | 0.00 | 67 | 1014.5 |
| 20260904144019 | 30 | 358 | 0.0 | 0.0 | 0.00 | 0.00 | 0.00 | 69 | 1014.7 |
| 20260904143514 | 30 | 326 | 6.4 | 6.4 | 0.00 | 0.00 | 0.00 | 71 | 1014.7 |
| 20260904143011 | 30 | 306 | 3.2 | 3.2 | 0.00 | 0.00 | 0.00 | 69 | 1014.8 |
| 20260904142507 | 29 | 267 | 3.2 | 4.8 | 0.00 | 0.00 | 0.00 | 73 | 1014.6 |
| 20260904142007 | 28 | 299 | 1.6 | 1.6 | 0.00 | 0.00 | 0.00 | 73 | 1014.6 |
| 20260904141502 | 28 | 299 | 3.2 | 3.2 | 0.00 | 0.00 | 0.00 | 74 | 1014.5 |
| 20260904140958 | 28 | 236 | 3.2 | 4.8 | 0.00 | 0.00 | 0.00 | 74 | 1014.5 |
| 20260904140453 | 28 | 316 | 3.2 | 4.8 | 0.00 | 0.00 | 0.00 | 76 | 1014.5 |
| 20260904135952 | 28 | 260 | 4.8 | 4.8 | 0.00 | 0.00 | 0.00 | 76 | 1014.4 |
| 20260904135452 | 27 | 271 | 6.4 | 6.4 | 0.00 | 0.00 | 0.00 | 76 | 1014.4 |
| 20260904134948 | 27 | 214 | 8.0 | 9.7 | 0.00 | 0.00 | 0.00 | 77 | 1014.5 |
| 20260904134448 | 27 | 239 | 8.0 | 9.7 | 0.00 | 0.00 | 0.00 | 78 | 1014.5 |
| 20260904133943 | 27 | 301 | 1.6 | 3.2 | 0.00 | 0.00 | 0.00 | 78 | 1014.6 |
| 20260904133437 | 27 | 282 | 4.8 | 6.4 | 0.00 | 0.00 | 0.00 | 79 | 1014.4 |
| 20260904132933 | 26 | 311 | 4.8 | 6.4 | 0.00 | 0.00 | 0.00 | 81 | 1014.4 |
| 20260904132428 | 26 | 274 | 6.4 | 6.4 | 0.00 | 0.00 | 0.00 | 81 | 1014.2 |
| 20260904131927 | 26 | 259 | 4.8 | 6.4 | 0.00 | 0.00 | 0.00 | 81 | 1014.4 |
| 20260904131423 | 26 | 312 | 6.4 | 6.4 | 0.00 | 0.00 | 0.00 | 82 | 1014.3 |
| 20260904130919 | 26 | 293 | 3.2 | 4.8 | 0.00 | 0.00 | 0.00 | 82 | 1014.1 |
| 20260904130417 | 25 | 299 | 4.8 | 6.4 | 0.00 | 0.00 | 0.00 | 82 | 1014.0 |
| 20260904125912 | 25 | 278 | 4.8 | 6.4 | 0.00 | 0.00 | 0.00 | 82 | 1013.9 |
| 20260904125409 | 25 | 236 | 4.8 | 4.8 | 0.00 | 0.00 | 0.00 | 83 | 1014.0 |
| 20260904124908 | 25 | 344 | 3.2 | 4.8 | 0.00 | 0.00 | 0.00 | 83 | 1013.6 |
| 20260904124405 | 25 | 297 | 1.6 | 3.2 | 0.00 | 0.00 | 0.00 | 84 | 1013.6 |
| 20260904123900 | 25 | 269 | 4.8 | 4.8 | 0.00 | 0.00 | 0.00 | 85 | 1013.6 |
| 20260904123355 | 25 | 280 | 3.2 | 4.8 | 0.00 | 0.00 | 0.00 | 85 | 1013.7 |
| 20260904122851 | 25 | 250 | 3.2 | 3.2 | 0.00 | 0.00 | 0.00 | 85 | 1013.6 |
| 20260904122349 | 25 | 323 | 1.6 | 3.2 | 0.00 | 0.00 | 0.00 | 85 | 1013.9 |
| 20260904121844 | 25 | 302 | 3.2 | 3.2 | 0.00 | 0.00 | 0.00 | 85 | 1013.6 |
| 20260904121341 | 24 | 256 | 1.6 | 3.2 | 0.00 | 0.00 | 0.00 | 86 | 1013.5 |
| 20260904120837 | 24 | 290 | 1.6 | 3.2 | 0.00 | 0.00 | 0.00 | 86 | 1013.4 |
| 20260904120333 | 24 | 275 | 1.6 | 3.2 | 0.00 | 0.00 | 0.00 | 86 | 1013.6 |
| 20260904115827 | 24 | 325 | 1.6 | 1.6 | 0.00 | 0.00 | 0.00 | 87 | 1013.6 |
| 20260904115323 | 24 | 293 | 1.6 | 1.6 | 0.00 | 0.00 | 0.00 | 87 | 1013.5 |
| 20260904114823 | 24 | 327 | 1.6 | 1.6 | 0.00 | 0.00 | 0.00 | 87 | 1013.4 |
| 20260904114318 | 24 | 337 | 0.0 | 0.0 | 0.00 | 0.00 | 0.00 | 88 | 1013.4 |
| 20260904113813 | 24 | 334 | 0.0 | 1.6 | 0.00 | 0.00 | 0.00 | 88 | 1013.3 |
| 20260904113312 | 23 | 329 | 1.6 | 1.6 | 0.00 | 0.00 | 0.00 | 88 | 1013.2 |
| 20260904112807 | 23 | 333 | 1.6 | 1.6 | 0.00 | 0.00 | 0.00 | 89 | 1013.3 |
| 20260904112305 | 23 | 343 | 0.0 | 1.6 | 0.00 | 0.00 | 0.00 | 89 | 1013.3 |
| 20260904111758 | 24 | 349 | 0.0 | 0.0 | 0.00 | 0.00 | 0.00 | 88 | 1013.2 |
| 20260904111254 | 24 | 351 | 0.0 | 0.0 | 0.00 | 0.00 | 0.00 | 88 | 1013.1 |
| 20260904110749 | 24 | 339 | 0.0 | 0.0 | 0.00 | 0.00 | 0.00 | 89 | 1013.1 |
| 20260904110248 | 24 | 345 | 0.0 | 0.0 | 0.00 | 0.00 | 0.00 | 88 | 1013.1 |
| 20260904105743 | 24 | 324 | 0.0 | 1.6 | 0.00 | 0.00 | 0.00 | 88 | 1013.1 |
| 20260904105238 | 24 | 338 | 1.6 | 1.6 | 0.00 | 0.00 | 0.00 | 88 | 1013.2 |
| 20260904104733 | 24 | 345 | 1.6 | 1.6 | 0.00 | 0.00 | 0.00 | 88 | 1013.0 |
| 20260904104229 | 24 | 40 | 1.6 | 3.2 | 0.00 | 0.00 | 0.00 | 88 | 1013.0 |
| 20260904103726 | 24 | 318 | 1.6 | 3.2 | 0.00 | 0.00 | 0.00 | 88 | 1013.1 |
| 20260904103220 | 24 | 324 | 1.6 | 1.6 | 0.00 | 0.00 | 0.00 | 89 | 1013.2 |
| 20260904102716 | 24 | 337 | 0.0 | 0.0 | 0.00 | 0.00 | 0.00 | 90 | 1013.4 |
| 20260904102211 | 24 | 345 | 0.0 | 0.0 | 0.00 | 0.00 | 0.00 | 90 | 1013.2 |
| 20260904101708 | 24 | 345 | 0.0 | 0.0 | 0.00 | 0.00 | 0.00 | 90 | 1013.4 |
| 20260904101203 | 25 | 345 | 0.0 | 0.0 | 0.00 | 0.00 | 0.00 | 89 | 1013.3 |
| 20260904100654 | 25 | 340 | 0.0 | 0.0 | 0.00 | 0.00 | 0.00 | 87 | 1013.2 |
| 20260904100149 | 25 | 338 | 0.0 | 0.0 | 0.00 | 0.00 | 0.00 | 87 | 1013.3 |
| 20260904095649 | 25 | 337 | 0.0 | 0.0 | 0.00 | 0.00 | 0.00 | 86 | 1013.2 |
| 20260904095148 | 25 | 332 | 0.0 | 0.0 | 0.00 | 0.00 | 0.00 | 87 | 1013.2 |
| 20260904094644 | 25 | 333 | 1.6 | 1.6 | 0.00 | 0.00 | 0.00 | 87 | 1013.2 |
| 20260904094138 | 25 | 304 | 1.6 | 3.2 | 0.00 | 0.00 | 0.00 | 87 | 1013.3 |
| 20260904093636 | 25 | 340 | 0.0 | 0.0 | 0.00 | 0.00 | 0.00 | 87 | 1013.3 |
| 20260904093135 | 25 | 338 | 0.0 | 0.0 | 0.00 | 0.00 | 0.00 | 87 | 1013.3 |
| 20260904092631 | 25 | 325 | 1.6 | 1.6 | 0.00 | 0.00 | 0.00 | 86 | 1013.2 |
| 20260904092127 | 25 | 336 | 0.0 | 0.0 | 0.00 | 0.00 | 0.00 | 86 | 1013.2 |
| 20260904091623 | 25 | 340 | 0.0 | 0.0 | 0.00 | 0.00 | 0.00 | 87 | 1013.3 |
| 20260904091123 | 25 | 323 | 1.6 | 1.6 | 0.00 | 0.00 | 0.00 | 87 | 1013.3 |
| 20260904090618 | 25 | 312 | 3.2 | 3.2 | 0.00 | 0.00 | 0.00 | 86 | 1013.3 |
| 20260904090114 | 25 | 283 | 3.2 | 3.2 | 0.00 | 0.00 | 0.00 | 86 | 1013.3 |
| 20260904085609 | 25 | 314 | 3.2 | 3.2 | 0.00 | 0.00 | 0.00 | 86 | 1013.2 |
| 20260904085108 | 25 | 337 | 0.0 | 0.0 | 0.00 | 0.00 | 0.00 | 86 | 1012.9 |
| 20260904084604 | 25 | 306 | 1.6 | 3.2 | 0.00 | 0.00 | 0.00 | 86 | 1013.0 |
| 20260904084100 | 25 | 330 | 1.6 | 1.6 | 0.00 | 0.00 | 0.00 | 86 | 1012.8 |
| 20260904083556 | 25 | 335 | 1.6 | 1.6 | 0.00 | 0.00 | 0.00 | 86 | 1012.7 |
| 20260904083052 | 25 | 330 | 3.2 | 3.2 | 0.00 | 0.00 | 0.00 | 86 | 1012.7 |
| 20260904082547 | 25 | 321 | 1.6 | 3.2 | 0.00 | 0.00 | 0.00 | 86 | 1012.7 |
| 20260904082042 | 25 | 215 | 6.4 | 6.4 | 0.00 | 0.00 | 0.00 | 86 | 1012.7 |
| 20260904081537 | 25 | 299 | 6.4 | 6.4 | 0.00 | 0.00 | 0.00 | 86 | 1012.6 |
| 20260904081033 | 25 | 235 | 3.2 | 4.8 | 0.00 | 0.00 | 0.00 | 86 | 1012.7 |
| 20260904080528 | 25 | 300 | 3.2 | 3.2 | 0.00 | 0.00 | 0.00 | 87 | 1012.7 |
| 20260904080024 | 25 | 210 | 6.4 | 6.4 | 0.00 | 0.00 | 0.00 | 87 | 1012.5 |
| 20260904075520 | 25 | 279 | 4.8 | 6.4 | 0.00 | 0.00 | 0.00 | 87 | 1012.6 |
| 20260904075015 | 25 | 67 | 3.2 | 4.8 | 0.00 | 0.00 | 0.00 | 87 | 1012.7 |
| 20260904074509 | 25 | 250 | 4.8 | 4.8 | 0.00 | 0.00 | 0.00 | 87 | 1012.6 |
| 20260904074008 | 25 | 290 | 3.2 | 3.2 | 0.00 | 0.00 | 0.00 | 87 | 1012.6 |
| 20260904073504 | 25 | 246 | 4.8 | 4.8 | 0.00 | 0.00 | 0.00 | 87 | 1012.7 |
| 20260904073000 | 25 | 243 | 4.8 | 4.8 | 0.00 | 0.00 | 0.00 | 88 | 1012.7 |
| 20260904072456 | 25 | 229 | 6.4 | 6.4 | 0.00 | 0.00 | 0.00 | 88 | 1012.7 |
| 20260904071955 | 25 | 264 | 4.8 | 4.8 | 0.00 | 0.00 | 0.00 | 87 | 1012.8 |
| 20260904071452 | 25 | 224 | 1.6 | 3.2 | 0.00 | 0.00 | 0.00 | 87 | 1013.1 |
| 20260904070951 | 26 | 224 | 6.4 | 6.4 | 0.00 | 0.00 | 0.00 | 87 | 1013.0 |
| 20260904070450 | 26 | 238 | 4.8 | 4.8 | 0.00 | 0.00 | 0.00 | 87 | 1013.3 |
| 20260904065945 | 26 | 208 | 4.8 | 6.4 | 0.00 | 0.00 | 0.00 | 87 | 1013.2 |
| 20260904065441 | 26 | 196 | 6.4 | 6.4 | 0.00 | 0.00 | 0.00 | 86 | 1013.3 |
| 20260904064936 | 26 | 148 | 3.2 | 3.2 | 0.00 | 0.00 | 0.00 | 86 | 1013.2 |
| 20260904064432 | 26 | 341 | 3.2 | 3.2 | 0.00 | 0.00 | 0.00 | 86 | 1013.2 |
| 20260904063927 | 26 | 81 | 3.2 | 4.8 | 0.00 | 0.00 | 0.00 | 86 | 1013.3 |
| 20260904063424 | 26 | 218 | 4.8 | 6.4 | 0.00 | 0.00 | 0.00 | 86 | 1013.3 |
| 20260904062919 | 26 | 285 | 3.2 | 3.2 | 0.00 | 0.00 | 0.00 | 86 | 1013.5 |
| 20260904062415 | 26 | 230 | 3.2 | 4.8 | 0.00 | 0.00 | 0.00 | 86 | 1013.7 |
| 20260904061910 | 26 | 293 | 3.2 | 3.2 | 0.00 | 0.00 | 0.00 | 86 | 1013.7 |
| 20260904061407 | 26 | 341 | 1.6 | 1.6 | 0.00 | 0.00 | 0.00 | 86 | 1013.7 |
| 20260904060903 | 26 | 0 | 1.6 | 3.2 | 0.00 | 0.00 | 0.00 | 86 | 1013.5 |
| 20260904060358 | 26 | 305 | 3.2 | 3.2 | 0.00 | 0.00 | 0.00 | 86 | 1013.7 |
| 20260904055853 | 26 | 333 | 1.6 | 1.6 | 0.00 | 0.00 | 0.00 | 86 | 1013.7 |
| 20260904055348 | 26 | 337 | 0.0 | 1.6 | 0.00 | 0.00 | 0.00 | 86 | 1013.5 |
| 20260904054844 | 26 | 216 | 3.2 | 3.2 | 0.00 | 0.00 | 0.00 | 85 | 1013.7 |
| 20260904054340 | 26 | 237 | 3.2 | 3.2 | 0.00 | 0.00 | 0.00 | 86 | 1013.5 |
| 20260904053835 | 26 | 329 | 1.6 | 1.6 | 0.00 | 0.00 | 0.00 | 86 | 1013.9 |
| 20260904053334 | 26 | 0 | 1.6 | 1.6 | 0.00 | 0.00 | 0.00 | 86 | 1013.6 |
| 20260904052830 | 26 | 319 | 3.2 | 3.2 | 0.00 | 0.00 | 0.00 | 86 | 1013.5 |
| 20260904052327 | 26 | 226 | 6.4 | 6.4 | 0.00 | 0.00 | 0.00 | 86 | 1013.5 |
| 20260904051823 | 26 | 316 | 3.2 | 3.2 | 0.00 | 0.00 | 0.00 | 86 | 1013.5 |
| 20260904051318 | 26 | 27 | 3.2 | 4.8 | 0.00 | 0.00 | 0.00 | 85 | 1013.4 |
| 20260904050813 | 27 | 329 | 3.2 | 3.2 | 0.00 | 0.00 | 0.00 | 85 | 1013.3 |
| 20260904050310 | 27 | 232 | 4.8 | 4.8 | 0.00 | 0.00 | 0.00 | 85 | 1013.3 |
| 20260904045805 | 27 | 261 | 1.6 | 3.2 | 0.00 | 0.00 | 0.00 | 84 | 1013.5 |
| 20260904045307 | 27 | 311 | 3.2 | 3.2 | 0.00 | 0.00 | 0.00 | 84 | 1013.4 |
| 20260904044759 | 27 | 303 | 3.2 | 4.8 | 0.00 | 0.00 | 0.00 | 83 | 1013.4 |
| 20260904044256 | 27 | 295 | 3.2 | 3.2 | 0.00 | 0.00 | 0.00 | 83 | 1013.6 |
| 20260904043752 | 27 | 230 | 3.2 | 4.8 | 0.00 | 0.00 | 0.00 | 83 | 1013.4 |
| 20260904043249 | 27 | 341 | 1.6 | 3.2 | 0.00 | 0.00 | 0.00 | 83 | 1013.5 |
| 20260904042743 | 27 | 345 | 3.2 | 3.2 | 0.00 | 0.00 | 0.00 | 82 | 1013.4 |
| 20260904042239 | 27 | 317 | 1.6 | 3.2 | 0.00 | 0.00 | 0.00 | 82 | 1013.5 |
| 20260904041739 | 27 | 217 | 3.2 | 3.2 | 0.00 | 0.00 | 0.00 | 82 | 1013.5 |
| 20260904041235 | 27 | 230 | 1.6 | 3.2 | 0.00 | 0.00 | 0.00 | 82 | 1013.6 |
| 20260904040731 | 27 | 307 | 3.2 | 3.2 | 0.00 | 0.00 | 0.00 | 82 | 1013.6 |
| 20260904040226 | 28 | 348 | 1.6 | 1.6 | 0.00 | 0.00 | 0.00 | 81 | 1013.6 |
| 20260904035722 | 28 | 352 | 0.0 | 0.0 | 0.00 | 0.00 | 0.00 | 81 | 1013.6 |
| 20260904035217 | 28 | 355 | 3.2 | 3.2 | 0.00 | 0.00 | 0.00 | 81 | 1013.6 |
| 20260904034716 | 28 | 305 | 3.2 | 4.8 | 0.00 | 0.00 | 0.00 | 81 | 1013.6 |
| 20260904034212 | 28 | 15 | 1.6 | 1.6 | 0.00 | 0.00 | 0.00 | 81 | 1013.7 |
| 20260904033708 | 28 | 342 | 1.6 | 3.2 | 0.00 | 0.00 | 0.00 | 81 | 1013.6 |
| 20260904033205 | 28 | 325 | 1.6 | 1.6 | 0.00 | 0.00 | 0.00 | 81 | 1013.6 |
| 20260904032700 | 28 | 31 | 1.6 | 1.6 | 0.00 | 0.00 | 0.00 | 80 | 1013.6 |
| 20260904032200 | 28 | 344 | 1.6 | 1.6 | 0.00 | 0.00 | 0.00 | 80 | 1013.4 |
| 20260904031700 | 28 | 158 | 1.6 | 3.2 | 0.00 | 0.00 | 0.00 | 80 | 1013.3 |
| 20260904031155 | 28 | 37 | 3.2 | 3.2 | 0.00 | 0.00 | 0.00 | 79 | 1013.3 |
| 20260904030651 | 28 | 197 | 4.8 | 4.8 | 0.00 | 0.00 | 0.00 | 79 | 1013.2 |
| 20260904030146 | 28 | 224 | 4.8 | 6.4 | 0.00 | 0.00 | 0.00 | 79 | 1013.4 |
| 20260904025642 | 28 | 29 | 4.8 | 4.8 | 0.00 | 0.00 | 0.00 | 79 | 1013.3 |
| 20260904025136 | 28 | 79 | 3.2 | 3.2 | 0.00 | 0.00 | 0.00 | 79 | 1013.1 |
| 20260904024627 | 28 | 2 | 1.6 | 1.6 | 0.00 | 0.00 | 0.00 | 79 | 1013.3 |
| 20260904024122 | 28 | 45 | 1.6 | 1.6 | 0.00 | 0.00 | 0.00 | 79 | 1013.2 |
| 20260904023618 | 28 | 46 | 3.2 | 4.8 | 0.00 | 0.00 | 0.00 | 80 | 1013.0 |
| 20260904023113 | 28 | 164 | 6.4 | 6.4 | 0.00 | 0.00 | 0.00 | 79 | 1013.0 |
| 20260904022608 | 28 | 115 | 4.8 | 6.4 | 0.00 | 0.00 | 0.00 | 79 | 1012.9 |
| 20260904022105 | 28 | 270 | 4.8 | 4.8 | 0.00 | 0.00 | 0.00 | 79 | 1013.2 |
| 20260904021600 | 28 | 10 | 1.6 | 3.2 | 0.00 | 0.00 | 0.00 | 78 | 1013.1 |
| 20260904021055 | 28 | 9 | 1.6 | 3.2 | 0.00 | 0.00 | 0.00 | 78 | 1013.2 |
| 20260904020550 | 28 | 267 | 3.2 | 3.2 | 0.00 | 0.00 | 0.00 | 78 | 1013.1 |
| 20260904020045 | 28 | 336 | 3.2 | 4.8 | 0.00 | 0.00 | 0.00 | 78 | 1013.0 |
| 20260904015539 | 28 | 297 | 1.6 | 3.2 | 0.00 | 0.00 | 0.00 | 78 | 1013.0 |
| 20260904015038 | 28 | 331 | 3.2 | 3.2 | 0.00 | 0.00 | 0.00 | 78 | 1013.1 |
| 20260904014532 | 28 | 297 | 1.6 | 3.2 | 0.00 | 0.00 | 0.00 | 78 | 1013.1 |
| 20260904014028 | 29 | 8 | 3.2 | 3.2 | 0.00 | 0.00 | 0.00 | 78 | 1013.0 |
| 20260904013524 | 29 | 352 | 1.6 | 1.6 | 0.00 | 0.00 | 0.00 | 78 | 1012.8 |
| 20260904013021 | 29 | 354 | 3.2 | 3.2 | 0.00 | 0.00 | 0.00 | 77 | 1012.7 |
| 20260904012520 | 29 | 108 | 3.2 | 4.8 | 0.00 | 0.00 | 0.00 | 77 | 1012.8 |
| 20260904012014 | 30 | 348 | 1.6 | 1.6 | 0.00 | 0.00 | 0.00 | 76 | 1012.7 |
| 20260904011509 | 30 | 353 | 1.6 | 1.6 | 0.00 | 0.00 | 0.00 | 76 | 1012.6 |
| 20260904011004 | 30 | 184 | 4.8 | 4.8 | 0.00 | 0.00 | 0.00 | 76 | 1012.7 |
| 20260904010501 | 30 | 7 | 1.6 | 3.2 | 0.00 | 0.00 | 0.00 | 75 | 1012.7 |
| 20260904010000 | 30 | 35 | 1.6 | 3.2 | 0.00 | 0.00 | 0.00 | 75 | 1012.5 |
| 20260904005456 | 30 | 350 | 1.6 | 1.6 | 0.00 | 0.00 | 0.00 | 74 | 1012.4 |
| 20260904004951 | 30 | 151 | 3.2 | 4.8 | 0.00 | 0.00 | 0.00 | 74 | 1012.5 |
| 20260904004448 | 30 | 19 | 1.6 | 1.6 | 0.00 | 0.00 | 0.00 | 73 | 1012.5 |
| 20260904003947 | 31 | 241 | 3.2 | 4.8 | 0.00 | 0.00 | 0.00 | 72 | 1012.4 |
| 20260904003443 | 31 | 0 | 1.6 | 3.2 | 0.00 | 0.00 | 0.00 | 71 | 1012.2 |
| 20260904002938 | 31 | 345 | 1.6 | 4.8 | 0.00 | 0.00 | 0.00 | 70 | 1012.2 |
| 20260904002435 | 31 | 42 | 4.8 | 4.8 | 0.00 | 0.00 | 0.00 | 70 | 1012.3 |
| 20260904001933 | 31 | 269 | 3.2 | 3.2 | 0.00 | 0.00 | 0.00 | 69 | 1012.1 |
| 20260904001429 | 31 | 336 | 3.2 | 4.8 | 0.00 | 0.00 | 0.00 | 69 | 1012.2 |
| 20260904000924 | 31 | 170 | 6.4 | 6.4 | 0.00 | 0.00 | 0.00 | 69 | 1012.1 |
| 20260904000425 | 32 | 119 | 3.2 | 4.8 | 0.00 | 0.00 | 0.00 | 69 | 1012.1 |
| 20260903235919 | 32 | 315 | 4.8 | 6.4 | 0.00 | 0.00 | 0.00 | 68 | 1012.0 |
| 20260903235415 | 32 | 256 | 6.4 | 6.4 | 0.00 | 0.00 | 0.00 | 67 | 1012.0 |
| 20260903234914 | 32 | 229 | 6.4 | 6.4 | 0.00 | 0.00 | 0.00 | 67 | 1012.0 |
| 20260903234410 | 32 | 227 | 9.7 | 11.3 | 0.00 | 0.00 | 0.00 | 66 | 1012.0 |
| 20260903233906 | 32 | 3 | 1.6 | 3.2 | 0.00 | 0.00 | 0.00 | 66 | 1012.0 |
| 20260903233402 | 32 | 163 | 6.4 | 6.4 | 0.00 | 0.00 | 0.00 | 66 | 1011.9 |
| 20260903232901 | 32 | 156 | 3.2 | 3.2 | 0.00 | 0.00 | 0.00 | 66 | 1011.6 |
| 20260903232356 | 32 | 211 | 6.4 | 6.4 | 0.00 | 0.00 | 0.00 | 66 | 1011.8 |
| 20260903231855 | 32 | 280 | 4.8 | 4.8 | 0.00 | 0.00 | 0.00 | 65 | 1011.8 |
| 20260903231351 | 32 | 316 | 3.2 | 3.2 | 0.00 | 0.00 | 0.00 | 65 | 1012.0 |
| 20260903230846 | 32 | 305 | 3.2 | 3.2 | 0.00 | 0.00 | 0.00 | 65 | 1011.9 |
| 20260903230341 | 32 | 338 | 4.8 | 6.4 | 0.00 | 0.00 | 0.00 | 65 | 1011.7 |
| 20260903225837 | 32 | 195 | 6.4 | 6.4 | 0.00 | 0.00 | 0.00 | 64 | 1011.7 |
| 20260903225328 | 33 | 235 | 6.4 | 9.7 | 0.00 | 0.00 | 0.00 | 63 | 1011.7 |
| 20260903224824 | 33 | 216 | 14.5 | 14.5 | 0.00 | 0.00 | 0.00 | 61 | 1011.6 |
| 20260903224320 | 33 | 232 | 4.8 | 6.4 | 0.00 | 0.00 | 0.00 | 59 | 1011.6 |
| 20260903223816 | 33 | 225 | 11.3 | 12.9 | 0.00 | 0.00 | 0.00 | 60 | 1011.5 |
| 20260903223314 | 34 | 242 | 12.9 | 16.1 | 0.00 | 0.00 | 0.00 | 59 | 1011.4 |
| 20260903222809 | 33 | 201 | 11.3 | 14.5 | 0.00 | 0.00 | 0.00 | 59 | 1011.3 |
| 20260903222308 | 33 | 208 | 17.7 | 24.1 | 0.00 | 0.00 | 0.00 | 59 | 1011.1 |
| 20260903221802 | 34 | 230 | 14.5 | 17.7 | 0.00 | 0.00 | 0.00 | 58 | 1011.3 |
| 20260903221301 | 34 | 190 | 9.7 | 17.7 | 0.00 | 0.00 | 0.00 | 58 | 1011.3 |
| 20260903220800 | 35 | 255 | 8.0 | 9.7 | 0.00 | 0.00 | 0.00 | 58 | 1011.5 |
| 20260903220255 | 34 | 189 | 9.7 | 14.5 | 0.00 | 0.00 | 0.00 | 58 | 1012.0 |
| 20260903215753 | 34 | 207 | 16.1 | 17.7 | 0.00 | 0.00 | 0.00 | 58 | 1012.0 |
| 20260903215249 | 34 | 337 | 8.0 | 11.3 | 0.00 | 0.00 | 0.00 | 56 | 1012.0 |
| 20260903214747 | 34 | 241 | 8.0 | 9.7 | 0.00 | 0.00 | 0.00 | 57 | 1012.5 |
| 20260903214239 | 35 | 270 | 6.4 | 9.7 | 0.00 | 0.00 | 0.00 | 56 | 1012.5 |
| 20260903213738 | 35 | 298 | 4.8 | 6.4 | 0.00 | 0.00 | 0.00 | 55 | 1012.6 |
| 20260903213233 | 35 | 244 | 6.4 | 9.7 | 0.00 | 0.00 | 0.00 | 56 | 1012.8 |
| 20260903212724 | 35 | 219 | 11.3 | 16.1 | 0.00 | 0.00 | 0.00 | 55 | 1012.8 |
| 20260903212220 | 35 | 251 | 6.4 | 6.4 | 0.00 | 0.00 | 0.00 | 55 | 1012.9 |
| 20260903211718 | 35 | 244 | 9.7 | 12.9 | 0.00 | 0.00 | 0.00 | 56 | 1013.0 |
| 20260903211215 | 35 | 268 | 12.9 | 14.5 | 0.00 | 0.00 | 0.00 | 55 | 1013.1 |
| 20260903210711 | 35 | 270 | 6.4 | 9.7 | 0.00 | 0.00 | 0.00 | 55 | 1013.1 |
| 20260903210207 | 35 | 296 | 9.7 | 11.3 | 0.00 | 0.00 | 0.00 | 55 | 1013.2 |
| 20260903205706 | 35 | 236 | 8.0 | 9.7 | 0.00 | 0.00 | 0.00 | 55 | 1013.0 |
| 20260903205205 | 35 | 275 | 8.0 | 11.3 | 0.00 | 0.00 | 0.00 | 51 | 1013.1 |
| 20260903204701 | 35 | 214 | 8.0 | 9.7 | 0.00 | 0.00 | 0.00 | 52 | 1013.2 |
| 20260903204157 | 35 | 232 | 6.4 | 9.7 | 0.00 | 0.00 | 0.00 | 54 | 1013.3 |
| 20260903203652 | 35 | 255 | 4.8 | 4.8 | 0.00 | 0.00 | 0.00 | 55 | 1013.1 |
| 20260903203148 | 35 | 237 | 11.3 | 14.5 | 0.00 | 0.00 | 0.00 | 54 | 1013.1 |
| 20260903202642 | 35 | 267 | 11.3 | 14.5 | 0.00 | 0.00 | 0.00 | 56 | 1013.3 |
| 20260903202138 | 35 | 247 | 4.8 | 4.8 | 0.00 | 0.00 | 0.00 | 55 | 1013.3 |
| 20260903201632 | 35 | 280 | 9.7 | 12.9 | 0.00 | 0.00 | 0.00 | 55 | 1013.4 |
| 20260903201131 | 35 | 210 | 9.7 | 12.9 | 0.00 | 0.00 | 0.00 | 54 | 1013.2 |
| 20260903200626 | 35 | 234 | 6.4 | 6.4 | 0.00 | 0.00 | 0.00 | 52 | 1013.2 |
| 20260903200121 | 35 | 227 | 9.7 | 11.3 | 0.00 | 0.00 | 0.00 | 52 | 1013.2 |
| 20260903195617 | 35 | 227 | 3.2 | 6.4 | 0.00 | 0.00 | 0.00 | 53 | 1013.2 |
| 20260903195113 | 34 | 157 | 3.2 | 4.8 | 0.00 | 0.00 | 0.00 | 55 | 1013.2 |
| 20260903194609 | 35 | 262 | 3.2 | 6.4 | 0.00 | 0.00 | 0.00 | 54 | 1013.3 |
| 20260903194108 | 35 | 208 | 8.0 | 11.3 | 0.00 | 0.00 | 0.00 | 55 | 1013.4 |
| 20260903193605 | 35 | 270 | 8.0 | 11.3 | 0.00 | 0.00 | 0.00 | 54 | 1013.5 |
| 20260903193100 | 35 | 272 | 8.0 | 9.7 | 0.00 | 0.00 | 0.00 | 54 | 1013.6 |
| 20260903192557 | 35 | 332 | 1.6 | 1.6 | 0.00 | 0.00 | 0.00 | 54 | 1013.7 |
| 20260903192057 | 35 | 217 | 8.0 | 11.3 | 0.00 | 0.00 | 0.00 | 54 | 1013.6 |
| 20260903191553 | 34 | 204 | 6.4 | 6.4 | 0.00 | 0.00 | 0.00 | 55 | 1013.9 |
| 20260903191048 | 34 | 190 | 8.0 | 12.9 | 0.00 | 0.00 | 0.00 | 56 | 1013.7 |
| 20260903190547 | 34 | 295 | 1.6 | 3.2 | 0.00 | 0.00 | 0.00 | 55 | 1013.9 |
| 20260903190047 | 34 | 331 | 3.2 | 3.2 | 0.00 | 0.00 | 0.00 | 57 | 1013.6 |
| 20260903185542 | 34 | 219 | 12.9 | 16.1 | 0.00 | 0.00 | 0.00 | 58 | 1013.7 |
| 20260903185038 | 33 | 193 | 9.7 | 11.3 | 0.00 | 0.00 | 0.00 | 58 | 1013.7 |
| 20260903184534 | 32 | 232 | 3.2 | 3.2 | 0.00 | 0.00 | 0.00 | 63 | 1013.7 |
| 20260903184029 | 32 | 98 | 4.8 | 4.8 | 0.00 | 0.00 | 0.00 | 65 | 1013.9 |
| 20260903183523 | 32 | 320 | 3.2 | 4.8 | 0.00 | 0.00 | 0.00 | 63 | 1013.9 |
| 20260903183018 | 32 | 37 | 6.4 | 6.4 | 0.00 | 0.00 | 0.00 | 64 | 1014.0 |
| 20260903182516 | 32 | 95 | 3.2 | 4.8 | 0.00 | 0.00 | 0.00 | 63 | 1014.0 |
| 20260903182013 | 32 | 218 | 4.8 | 4.8 | 0.00 | 0.00 | 0.00 | 63 | 1014.2 |
| 20260903181511 | 31 | 178 | 4.8 | 4.8 | 0.00 | 0.00 | 0.00 | 64 | 1014.4 |
| 20260903181011 | 32 | 38 | 1.6 | 1.6 | 0.00 | 0.00 | 0.00 | 65 | 1014.5 |
| 20260903180507 | 31 | 189 | 8.0 | 9.7 | 0.00 | 0.00 | 0.00 | 64 | 1014.4 |
| 20260903180006 | 31 | 200 | 6.4 | 6.4 | 0.00 | 0.00 | 0.00 | 67 | 1014.3 |
| 20260903175505 | 32 | 261 | 3.2 | 4.8 | 0.00 | 0.00 | 0.00 | 66 | 1014.4 |
| 20260903175005 | 32 | 286 | 4.8 | 6.4 | 0.00 | 0.00 | 0.00 | 67 | 1014.7 |
| 20260903174500 | 32 | 172 | 4.8 | 4.8 | 0.00 | 0.00 | 0.00 | 67 | 1014.5 |
| 20260903174000 | 31 | 314 | 3.2 | 3.2 | 0.00 | 0.00 | 0.00 | 67 | 1014.7 |
| 20260903173455 | 31 | 337 | 4.8 | 4.8 | 0.00 | 0.00 | 0.00 | 67 | 1014.6 |
| 20260903172951 | 31 | 291 | 3.2 | 3.2 | 0.00 | 0.00 | 0.00 | 66 | 1014.7 |
| 20260903172446 | 31 | 234 | 6.4 | 6.4 | 0.00 | 0.00 | 0.00 | 65 | 1014.6 |
| 20260903171941 | 31 | 133 | 3.2 | 3.2 | 0.00 | 0.00 | 0.00 | 65 | 1014.5 |
| 20260903171436 | 32 | 23 | 3.2 | 3.2 | 0.00 | 0.00 | 0.00 | 65 | 1014.8 |
| 20260903170936 | 31 | 99 | 6.4 | 6.4 | 0.00 | 0.00 | 0.00 | 67 | 1014.7 |
| 20260903170431 | 31 | 344 | 3.2 | 3.2 | 0.00 | 0.00 | 0.00 | 65 | 1014.5 |
| 20260903165930 | 32 | 136 | 3.2 | 4.8 | 0.00 | 0.00 | 0.00 | 62 | 1014.6 |
| 20260903165424 | 31 | 352 | 3.2 | 3.2 | 0.00 | 0.00 | 0.00 | 65 | 1014.7 |
| 20260903164924 | 31 | 334 | 0.0 | 1.6 | 0.00 | 0.00 | 0.00 | 63 | 1014.6 |
| 20260903164420 | 32 | 25 | 0.0 | 1.6 | 0.00 | 0.00 | 0.00 | 62 | 1014.7 |
| 20260903163919 | 31 | 273 | 3.2 | 3.2 | 0.00 | 0.00 | 0.00 | 65 | 1014.6 |
| 20260903163415 | 30 | 332 | 1.6 | 1.6 | 0.00 | 0.00 | 0.00 | 68 | 1014.5 |
| 20260903162911 | 30 | 288 | 4.8 | 6.4 | 0.00 | 0.00 | 0.00 | 68 | 1014.7 |
| 20260903162408 | 30 | 75 | 4.8 | 4.8 | 0.00 | 0.00 | 0.00 | 68 | 1014.8 |
| 20260903161903 | 30 | 62 | 3.2 | 3.2 | 0.00 | 0.00 | 0.00 | 70 | 1014.7 |
| 20260903161358 | 30 | 72 | 4.8 | 4.8 | 0.00 | 0.00 | 0.00 | 70 | 1014.6 |
| 20260903160854 | 30 | 63 | 6.4 | 6.4 | 0.00 | 0.00 | 0.00 | 70 | 1014.9 |